Погода в Новостройке

Россия / Хабаровский край     47°51′01″N   134°57′23″E
темп.,
°C
ветер,
м/с
пор.,
м/с
влажн.,
%
обл.,
%
осадки,
мм/ч
давл.,
гПа
погр.,
м
25 октября, пн
пн2501:00+4ю34680 0.0 102048
04:00+3ю33744 0.0 102039
07:00+2ю33755 0.0 102032
10:00+7ююз24561 0.0 1020229
13:00+13юз57414 0.0 1019953
16:00+13юз58450 0.0 10171093
19:00+8ю36670 0.0 101870
22:00+6ю47745 0.0 1018102
26 октября, вт
вт2601:00+5ю347885 0.0 101848
04:00+4ююв338018 0.0 101731
07:00+3ююв338118 0.0 101736
10:00+8ю356015 0.0 1017243
13:00+13ююз354363 0.0 10151003
16:00+14юз354574 0.0 10131093
19:00+9ю3364100 0.0 101343
22:00+7ююв368036 0.1 101284
27 октября, ср
ср2701:00+6ююв3686100 0.1 101091
04:00+6ю3383100 0.4 100954
07:00+7юз4990100 0.9 1009373
10:00+8юз5980100 2.3 1010795
13:00+10зюз68525 0.0 10081311
16:00+11зюз564780 0.0 10081682
19:00+7зюз2260100 0.0 100916
22:00+6зсз1163100 0.0 101010
28 октября, чт
чт2801:00+5зюз3676100 0.0 1011144
04:00+4зюз3687100 0.0 1013164
07:00+4зюз3587100 0.0 1015157
10:00+5ссз2481100 0.1 1018286
13:00+5ссв4688100 0.1 1020631
16:00+7с2566100 0.1 1021972
19:00+6юз1172100 0.0 102313
22:00+6ю2279100 0.0 102560
29 октября, пт
пт2901:00+4юз22839 0.0 102521
04:00+2юз22895 0.0 102630
07:00+1ююз33905 0.0 102745
10:00+5ююз35690 0.0 1029322
13:00+10юз35501 0.0 1027923
16:00+10зюз34450 0.0 1026929
19:00+6юз22590 0.0 102611
22:00+4ююв22780 0.0 102617